W1HS Weather Reports


Display with metric or nautical units.
time (UTC)temp
F
wind
direction
speed
MPH
gust
MPH
rain 1hr
in
rain 24hr
in
rain mn
in
humidity
%
barometer
mb
20260505140219 66 225 7.0 12.0 0.00 0.00 0.00 56 988.8
20260505124819 58 225 7.0 13.0 0.00 0.00 0.00 67 988.6
20260505123821 56 225 4.0 8.0 0.00 0.00 0.00 69 988.6
20260505122819 56 180 5.0 9.0 0.00 0.00 0.00 70 988.5
20260505121822 55 225 3.0 9.0 0.00 0.00 0.00 72 988.6
20260505120821 56 225 4.0 7.0 0.00 0.00 0.00 70 988.4
20260505115819 56 203 2.0 4.0 0.00 0.00 0.00 68 988.3
20260505114819 56 225 4.0 8.0 0.00 0.00 0.00 69 989.0
20260505113819 54 225 2.0 3.0 0.00 0.00 0.00 71 989.1
20260505112819 54 225 6.0 8.0 0.00 0.00 0.00 72 989.0
20260505111821 53 248 9.0 11.0 0.00 0.00 0.00 72 988.8
20260505110819 53 248 3.0 9.0 0.00 0.00 0.00 71 988.7
20260505101819 53 203 3.0 9.0 0.00 0.00 0.00 70 988.1
20260505100819 53 225 3.0 8.0 0.00 0.00 0.00 70 988.2
20260505095819 53 248 6.0 10.0 0.00 0.00 0.00 70 988.3
20260505094818 53 225 5.0 8.0 0.00 0.00 0.00 69 988.1
20260505093823 53 203 2.0 4.0 0.00 0.00 0.00 69 988.2
20260505092819 53 225 3.0 7.0 0.00 0.00 0.00 69 988.2
20260505091828 53 248 5.0 8.0 0.00 0.00 0.00 68 988.3
20260505090821 54 225 3.0 6.0 0.00 0.00 0.00 68 988.3
20260505085819 54 225 3.0 6.0 0.00 0.00 0.00 67 988.6
20260505084819 54 203 3.0 6.0 0.00 0.00 0.00 67 988.6
20260505083819 54 225 3.0 6.0 0.00 0.00 0.00 66 988.8
20260505082819 54 225 5.0 6.0 0.00 0.00 0.00 67 988.6
20260505081821 54 180 3.0 6.0 0.00 0.00 0.00 66 988.5
20260505080822 54 225 3.0 7.0 0.00 0.00 0.00 65 988.6
20260505075822 54 248 7.0 11.0 0.00 0.00 0.00 65 988.6
20260505074818 55 225 5.0 8.0 0.00 0.00 0.00 64 988.6
20260505073821 55 225 4.0 10.0 0.00 0.00 0.00 64 988.6
20260505072819 55 203 5.0 8.0 0.00 0.00 0.00 63 988.6
20260505071819 55 225 4.0 7.0 0.00 0.00 0.00 63 988.7
20260505070818 55 225 5.0 9.0 0.00 0.00 0.00 63 988.8
20260505065820 55 203 5.0 10.0 0.00 0.00 0.00 63 988.8
20260505064818 55 225 3.0 10.0 0.00 0.00 0.00 64 988.8
20260505063828 55 225 7.0 14.0 0.00 0.00 0.00 65 988.8
20260505062819 54 225 6.0 10.0 0.00 0.00 0.00 65 988.8
20260505062018 54 225 1.0 4.0 0.00 0.00 0.00 65 988.8
20260505061722 54 0.0 0.0 0.00 0.00 0.00 65 988.8
20260505060718 54 248 3.0 9.0 0.00 0.00 0.00 65 988.9
20260505055730 54 203 1.0 3.0 0.00 0.00 0.00 65 988.9
20260505054757 55 203 4.0 7.0 0.00 0.00 0.00 65 989.0
20260505054755 55 203 5.0 14.0 0.00 0.00 0.00 64 988.9
20260505054753 55 225 4.0 10.0 0.00 0.00 0.00 64 989.1
20260505050331 55 158 6.0 14.0 0.00 0.00 0.00 63 989.0
20260505041618 56 180 3.0 6.0 0.00 0.00 0.00 61 988.9
20260505040618 56 225 1.0 3.0 0.00 0.00 0.00 61 989.0
20260505035619 57 203 3.0 8.0 0.00 0.00 0.00 60 988.9
20260505034621 57 225 4.0 8.0 0.00 0.00 0.00 59 988.8
20260505033618 57 180 4.0 10.0 0.00 0.00 0.00 58 988.8
20260505032628 57 225 3.0 7.0 0.00 0.00 0.00 58 988.6
20260505031619 58 203 4.0 8.0 0.00 0.00 0.00 56 988.6
20260505030621 58 203 7.0 13.0 0.00 0.00 0.00 55 988.6
20260505025618 59 203 7.0 12.0 0.00 0.00 0.00 53 988.7
20260505024619 59 180 4.0 8.0 0.00 0.00 0.00 52 988.5
20260505023624 60 203 7.0 13.0 0.00 0.00 0.00 51 988.7
20260505022622 60 225 6.0 12.0 0.00 0.00 0.00 48 988.6
20260505021623 61 225 3.0 6.0 0.00 0.00 0.00 46 988.6
20260505020724 61 225 7.0 11.0 0.00 0.00 0.00 45 988.6
20260505020533 61 225 11.0 16.0 0.00 0.00 0.00 45 988.6
20260505020123 61 203 6.0 11.0 0.00 0.00 0.00 45 988.5
20260505015118 61 225 3.0 7.0 0.00 0.00 0.00 45 988.5
20260505014119 62 225 4.0 6.0 0.00 0.00 0.00 45 988.5
20260505013118 62 203 6.0 9.0 0.00 0.00 0.00 45 988.6
20260505012120 62 225 3.0 6.0 0.00 0.00 0.00 44 988.4
20260505011119 63 225 1.0 5.0 0.00 0.00 0.00 43 988.4
20260505010118 63 225 2.0 7.0 0.00 0.00 0.00 43 988.2
20260505005119 64 180 3.0 9.0 0.00 0.00 0.00 42 988.3
20260505004121 64 225 5.0 9.0 0.00 0.00 0.00 41 988.0
20260505003119 64 248 2.0 4.0 0.00 0.00 0.00 41 988.0
20260505002122 64 248 4.0 7.0 0.00 0.00 0.00 41 987.9
20260505001121 64 225 4.0 6.0 0.00 0.00 0.00 42 987.7
20260505000120 64 248 4.0 9.0 0.00 0.00 0.00 41 987.6
20260504235926 65 225 2.0 6.0 0.00 0.00 0.00 41 987.4
20260504234526 65 225 2.0 5.0 0.00 0.00 0.00 40 987.3
20260504233528 65 270 5.0 8.0 0.00 0.00 0.00 41 987.2
20260504232749 66 270 6.0 8.0 0.00 0.00 0.00 39 987.2
20260504231843 66 248 11.0 14.0 0.00 0.00 0.00 38 987.0
20260504231125 66 270 8.0 11.0 0.00 0.00 0.00 38 986.9
20260504230825 66 248 6.0 8.0 0.00 0.00 0.00 38 986.9
20260504230043 67 248 9.0 17.0 0.00 0.00 0.00 37 986.8
20260504225735 67 248 11.0 14.0 0.00 0.00 0.00 36 986.8
20260504224719 67 248 9.0 13.0 0.00 0.00 0.00 37 986.8
20260504223723 68 248 7.0 10.0 0.00 0.00 0.00 37 986.8
20260504222720 67 248 8.0 10.0 0.00 0.00 0.00 37 986.8
20260504221719 67 225 9.0 14.0 0.00 0.00 0.00 36 986.7
20260504220848 68 293 10.0 13.0 0.00 0.00 0.00 35 986.6
20260504220525 68 270 9.0 11.0 0.00 0.00 0.00 36 986.6
20260504215626 69 270 14.0 17.0 0.00 0.00 0.00 35 986.6
20260504215127 69 248 8.0 10.0 0.00 0.00 0.00 36 986.6
20260504214118 68 248 3.0 5.0 0.00 0.00 0.00 38 986.8
20260504213119 68 248 10.0 16.0 0.00 0.00 0.00 37 986.8
20260504212118 68 270 13.0 17.0 0.00 0.00 0.00 36 986.8
20260504211118 67 270 7.0 9.0 0.00 0.00 0.00 39 986.9
20260504210118 67 248 9.0 13.0 0.00 0.00 0.00 37 986.9
20260504205118 68 270 10.0 15.0 0.00 0.00 0.00 37 986.9
20260504204118 67 270 15.0 21.0 0.00 0.00 0.00 38 987.1
20260504203135 67 270 13.0 17.0 0.00 0.00 0.00 38 986.9
20260504202118 67 270 7.0 14.0 0.00 0.00 0.00 37 987.0
20260504201118 67 248 14.0 26.0 0.00 0.00 0.00 38 987.0
20260504200122 67 270 9.0 13.0 0.00 0.00 0.00 37 987.0
20260504195120 68 270 14.0 21.0 0.00 0.00 0.00 37 987.3
20260504194118 67 248 10.0 16.0 0.00 0.00 0.00 39 987.4
20260504193119 67 248 13.0 21.0 0.00 0.00 0.00 38 987.3
20260504192129 66 293 16.0 22.0 0.00 0.00 0.00 39 987.2
20260504191120 67 270 15.0 21.0 0.00 0.00 0.00 38 987.3
20260504190120 68 270 12.0 22.0 0.00 0.00 0.00 38 987.4
20260504185120 67 248 14.0 19.0 0.00 0.00 0.00 38 987.3
20260504184120 66 270 9.0 12.0 0.00 0.00 0.00 39 987.3
20260504183120 66 270 14.0 18.0 0.00 0.00 0.00 38 987.4
20260504182119 66 270 19.0 24.0 0.00 0.00 0.00 38 987.3
20260504181120 65 248 16.0 23.0 0.00 0.00 0.00 40 987.5
20260504180120 64 248 10.0 16.0 0.00 0.00 0.00 40 987.5
20260504175123 63 248 16.0 22.0 0.00 0.00 0.00 42 987.7
20260504174119 64 248 11.0 16.0 0.00 0.00 0.00 41 987.6
20260504173119 65 248 18.0 25.0 0.00 0.00 0.00 39 987.7
20260504172120 65 270 14.0 21.0 0.00 0.00 0.00 42 987.5
20260504171119 64 248 16.0 21.0 0.00 0.00 0.00 41 987.5
20260504170118 64 248 13.0 17.0 0.00 0.00 0.00 42 987.5
20260504160123 60 248 13.0 29.0 0.00 0.00 0.00 46 988.2
20260504151129 58 248 13.0 19.0 0.00 0.00 0.00 45 988.6
20260504150121 59 248 7.0 13.0 0.00 0.00 0.00 45 988.6